Location: Angwan Shehu
(11.2514°N, 7.4613°E)
Time: 10:16:52
(UTC+00:00)

CSL-04 Rocket - Pass Details

Date: 14 November 2019
Orbit: 806 x 860 km, 99.0° (Epoch: 09 December)

Event Time Altitude Azimuth Distance (km) Brightness Sun altitude
Rises 18:32:52 0° 171° (S) 3,400 6.9 -21.9°
Reaches altitude 10° 18:35:15 10° 173° (S) 2,458 6.2 -22.5°
Maximum altitude 18:40:41 72° 257° (WSW) 876 3.8 -23.8°
Drops below altitude 10° 18:46:02 10° 342° (NNW) 2,422 6.1 -25.0°
Sets 18:48:23 0° 344° (NNW) 3,346 6.8 -25.6°
